Theta_e
337 337 337 337 336 336 335 334 334 333 334 333 334 331 330 330 330 329 329 331 330 331 338 337 342 344 344 346 347 348 350 351 351 351 353 353 355 357 355 354 353 353 353 352 351 352 352 351 352 353 352 352 351 351 352 353 354 355 355 355 355 355 356 357 357 357 356 357 355 354 353 353 354 355 354 354 354 354 357 359 359 358 358 358 358
337 336 334 333 332 332 332 331 331 333 331 331 334 330 330 329 330 330 329 331 331 332 337 338 343 344 345 344 345 347 351 352 353 354 353 352 352 354 355 355 354 354 354 353 353 352 353 353 353 352 352 352 352 352 354 354 353 354 353 354 355 355 356 357 357 355 356 355 356 356 354 354 354 352 351 354 354 354 355 354 355 357 359 359 358
336 334 332 331 331 330 330 330 330 331 331 330 331 332 330 329 330 331 330 331 331 332 336 340 341 342 344 344 344 347 349 352 353 353 351 351 351 353 356 356 354 353 353 353 353 351 350 348 351 352 352 352 353 353 351 347 351 353 353 354 355 356 356 355 356 355 355 355 355 356 355 353 350 350 352 352 353 353 354 354 354 355 357 356 357
335 333 331 331 330 330 330 330 330 330 332 329 329 328 330 329 330 332 331 331 330 333 337 339 340 341 343 342 344 346 348 349 350 351 351 351 350 351 354 354 353 354 353 352 352 350 349 349 351 351 351 348 350 350 349 351 354 353 352 354 354 354 355 356 355 356 355 355 356 356 357 355 351 351 351 352 352 352 353 354 354 355 356 355 356
336 336 336 329 329 329 329 331 329 330 331 331 328 326 327 326 328 332 334 331 331 334 336 336 339 341 343 343 345 346 347 348 349 348 348 348 349 349 350 352 352 348 351 350 349 350 348 346 345 349 349 350 347 344 348 352 353 352 351 352 352 353 353 354 355 355 355 355 355 355 355 355 351 349 352 352 352 353 353 354 354 356 356 356 356
331 331 331 330 330 329 328 328 328 328 327 328 325 325 325 325 330 328 334 330 329 333 333 336 338 341 343 344 344 344 346 346 346 347 349 349 349 348 348 349 350 351 352 352 351 347 347 347 350 349 349 348 348 348 350 352 352 353 350 351 348 352 352 352 352 352 354 353 353 355 354 355 355 355 355 354 353 354 355 356 355 355 356 356 357
332 330 329 330 329 329 329 328 329 328 324 325 325 325 324 325 331 327 327 327 327 333 331 334 337 339 343 345 345 345 345 345 346 346 347 347 349 349 350 350 350 349 350 350 351 351 350 345 352 350 350 349 348 349 349 352 352 352 349 348 348 349 350 352 351 351 350 349 351 352 353 353 353 354 355 355 355 355 354 355 356 356 355 354 354
330 329 328 328 328 328 328 328 329 328 326 325 327 325 323 326 327 327 325 324 327 327 330 335 338 340 344 343 344 346 343 344 344 344 344 346 346 347 348 349 349 351 351 350 352 350 350 350 349 349 349 350 350 350 349 350 348 349 350 351 350 351 352 352 349 348 348 351 351 351 352 353 353 353 354 355 354 354 354 354 355 355 355 355 355
331 329 327 326 326 325 324 326 329 326 325 324 324 327 323 326 326 331 325 323 323 324 328 334 337 339 341 341 341 343 343 345 345 342 343 342 344 345 346 347 349 350 348 348 349 350 351 352 352 349 350 350 350 350 350 350 349 349 348 349 350 349 349 349 349 350 348 349 351 352 352 351 352 353 354 354 354 354 354 354 355 356 355 356 356
330 330 330 330 324 323 323 325 328 325 324 324 324 326 325 325 325 326 326 324 323 323 327 332 338 338 338 338 339 337 337 336 337 337 337 338 340 343 345 346 346 346 346 347 346 347 347 348 350 350 350 349 349 349 350 349 349 349 348 348 348 349 349 348 348 349 347 347 348 350 351 353 351 352 354 355 355 355 355 355 354 355 355 355 355
329 330 328 325 324 323 324 325 327 324 323 323 324 327 327 326 324 322 325 326 324 324 324 334 335 334 332 331 331 331 332 333 331 331 331 335 344 345 345 345 346 346 347 346 346 345 345 346 346 345 345 347 347 347 348 348 347 347 346 345 345 347 348 348 348 348 348 347 348 349 349 350 353 355 355 354 354 355 355 355 355 355 354 354 354
326 327 329 326 323 323 324 326 326 324 323 323 323 324 324 324 326 326 320 324 325 325 327 331 328 329 330 327 328 329 328 328 329 330 333 333 337 342 343 344 345 345 346 345 345 345 345 344 347 343 342 343 345 345 346 347 345 343 343 343 343 343 346 347 349 349 347 347 347 348 349 350 352 354 355 355 354 355 356 355 355 354 354 354 354
328 325 323 330 324 323 323 323 324 324 323 323 323 325 326 325 324 327 323 321 322 323 324 326 325 322 324 323 325 328 328 326 325 326 328 331 334 338 340 341 341 343 344 345 344 344 344 343 342 342 340 340 338 342 344 346 342 341 341 340 341 341 343 345 347 347 347 347 346 347 347 348 350 352 353 354 355 355 355 353 354 354 355 355 354
332 328 326 323 323 322 322 322 323 325 324 324 325 327 322 322 322 322 322 321 320 322 323 327 325 321 319 319 322 324 329 325 324 325 327 331 335 337 338 339 340 341 343 343 343 343 343 342 342 341 340 340 338 339 339 341 344 340 339 338 339 340 341 343 345 346 346 346 346 346 347 347 350 353 353 354 355 354 355 356 356 353 354 354 355
327 329 324 323 322 321 321 321 321 325 320 320 320 321 321 320 321 321 319 321 322 323 324 325 324 325 323 320 318 317 322 323 323 323 326 330 336 338 339 339 339 341 342 343 342 342 342 342 342 342 341 340 339 338 338 339 340 340 339 338 338 339 340 341 342 345 345 346 345 345 346 347 349 352 353 354 355 355 355 355 356 356 354 353 356
325 325 322 321 320 320 320 320 320 323 320 319 320 319 320 320 319 323 320 317 316 319 324 323 324 324 319 319 316 316 314 316 319 322 323 325 330 336 338 338 340 341 341 340 341 342 341 341 341 341 341 340 339 338 337 339 339 340 341 337 337 337 338 339 341 344 344 344 344 344 346 347 349 352 353 353 354 355 355 355 355 356 357 357 357
324 324 326 320 320 320 320 320 321 321 320 319 319 319 319 319 318 318 317 317 316 317 320 323 323 327 323 315 314 315 314 316 316 320 321 325 325 329 337 337 339 340 339 339 339 340 341 340 339 338 339 340 340 339 338 337 339 339 336 340 336 336 337 339 340 342 343 343 342 345 346 347 350 352 352 353 354 354 354 354 355 356 357 357 356
323 323 325 323 321 321 321 321 321 322 322 319 319 320 321 320 319 317 316 317 317 316 316 321 321 324 323 323 323 318 315 317 316 315 323 322 324 326 327 333 337 338 337 336 336 335 336 335 334 333 333 335 338 339 338 337 340 334 338 338 336 336 337 339 339 342 342 341 343 345 346 347 349 351 352 353 353 353 354 354 354 356 357 357 356
322 322 323 324 321 321 322 322 323 323 325 319 318 318 319 322 322 318 317 320 316 314 313 316 320 318 321 323 323 321 320 318 314 314 316 321 322 324 324 325 329 333 335 334 333 331 330 331 330 329 331 331 334 336 337 339 337 337 338 335 335 336 337 337 339 341 341 341 342 344 345 346 349 350 352 352 353 352 354 355 354 356 357 358 356
322 322 323 325 323 321 322 322 323 327 324 319 319 318 318 321 322 318 320 318 315 314 313 313 316 315 320 318 320 320 319 319 318 319 317 317 319 323 325 324 327 329 333 334 333 330 329 327 328 327 328 329 330 332 333 335 336 337 338 334 334 334 336 337 342 341 340 340 342 343 344 345 346 349 351 352 352 351 351 355 357 358 358 356 356
324 323 324 326 328 322 321 322 323 325 327 321 320 319 318 317 317 315 315 316 319 317 314 313 314 314 317 317 317 316 317 317 317 319 318 313 312 315 321 325 326 326 329 330 330 331 330 328 327 325 327 326 327 328 330 331 335 339 342 332 332 333 336 335 338 341 341 340 341 341 342 343 345 348 350 351 351 350 350 352 354 353 352 354 354
322 322 322 323 324 325 323 323 325 328 327 320 320 320 319 318 318 316 315 314 316 315 314 313 314 314 314 315 317 317 316 316 315 314 314 315 314 314 315 320 320 323 328 327 325 327 328 327 325 325 324 324 325 326 330 330 334 339 337 331 331 331 331 334 336 337 338 340 340 340 341 343 343 346 348 349 350 350 350 349 350 349 349 350 353
322 321 321 323 326 329 324 324 326 328 323 320 320 320 319 317 316 316 315 313 311 313 315 315 315 315 313 314 315 316 317 315 314 315 315 312 312 313 314 318 319 318 323 328 329 326 326 326 324 323 323 324 325 326 329 332 338 335 333 336 336 335 335 332 332 334 336 338 339 340 340 342 343 345 347 348 349 350 349 349 349 349 346 345 349
321 321 322 323 324 323 325 321 322 319 320 320 321 320 319 318 316 316 314 315 316 317 313 313 313 314 313 313 314 315 316 317 317 317 316 314 313 313 315 317 316 319 322 327 330 328 323 324 324 323 323 324 325 328 330 332 334 335 332 332 333 333 333 334 337 334 333 336 338 339 340 341 343 344 347 348 348 349 349 348 348 348 347 348 348
320 320 321 322 322 319 320 320 321 323 321 321 321 320 319 318 317 315 315 314 314 314 313 313 314 314 313 313 313 314 314 314 317 316 315 314 315 314 315 316 316 315 318 320 319 326 324 322 323 321 323 324 324 327 332 332 333 331 331 326 331 333 333 332 334 336 335 335 338 339 340 341 343 344 345 348 347 348 348 349 348 349 348 348 349
319 320 321 324 322 323 321 321 322 324 323 322 322 322 319 318 317 317 316 315 315 314 314 314 314 314 314 314 313 314 315 316 316 317 317 317 315 315 316 314 315 314 317 317 317 317 321 323 323 321 322 323 324 327 332 331 330 328 329 325 324 331 334 333 334 335 340 336 341 339 341 340 342 344 344 346 347 347 347 348 349 348 348 348 350
320 321 325 322 322 321 322 321 319 320 321 321 320 320 321 322 321 320 319 316 317 317 313 313 312 312 313 315 316 314 315 318 315 316 317 320 317 316 317 312 311 312 313 314 315 315 314 323 324 321 322 324 324 326 331 332 329 327 325 321 322 325 331 330 333 335 338 338 341 342 341 340 339 342 344 345 347 347 347 347 348 347 348 348 349
322 323 323 322 322 323 321 318 319 321 322 321 321 320 320 319 319 319 319 320 317 316 315 313 312 312 312 313 315 314 316 317 319 318 318 319 319 317 318 315 312 309 310 310 312 315 316 315 324 322 321 321 324 324 326 325 331 326 324 321 321 322 328 328 331 333 335 336 338 341 340 339 340 342 343 344 345 347 346 346 347 347 346 346 346
322 324 322 322 320 319 319 319 320 320 321 322 320 320 319 319 318 319 319 319 320 316 315 314 314 312 313 314 315 316 316 318 319 319 318 319 319 318 319 318 314 312 312 310 311 311 316 315 314 321 322 321 321 325 323 323 327 326 324 321 320 322 326 327 329 331 332 334 336 338 340 340 341 342 342 343 345 345 347 346 346 346 346 346 345
323 322 321 321 323 327 319 320 320 321 321 321 320 320 320 320 319 320 319 319 318 318 319 314 313 315 316 314 315 316 317 317 318 319 319 319 319 319 319 317 316 315 312 311 310 313 314 317 317 318 322 321 320 321 322 323 327 326 324 321 319 323 326 325 327 329 330 332 334 335 337 338 339 340 341 342 344 344 346 346 345 345 346 344 344
324 322 320 321 322 319 319 318 320 321 320 321 322 321 320 321 323 320 320 318 318 317 318 316 313 313 314 315 315 316 317 317 317 317 318 318 317 318 318 318 316 316 313 313 310 314 313 314 319 319 319 320 317 318 320 321 324 325 323 321 320 324 324 323 325 327 329 331 332 334 335 337 338 339 340 341 342 343 345 345 345 344 344 343 342
320 320 320 321 321 319 318 318 317 318 320 320 320 320 320 319 320 319 320 319 318 318 316 315 312 311 313 314 315 316 317 317 318 317 317 319 318 317 317 318 317 315 316 314 313 313 316 316 316 317 318 319 319 315 316 319 320 323 322 319 320 321 320 321 323 325 327 331 331 332 334 335 336 338 340 341 342 343 343 344 344 344 343 342 341
319 319 319 320 319 320 319 322 318 320 320 319 321 320 322 320 320 320 320 320 319 318 321 314 313 312 314 314 314 316 316 317 317 317 317 316 317 318 318 318 317 317 316 315 315 314 318 316 315 316 319 319 316 316 315 316 317 318 320 319 319 319 320 321 322 322 327 330 330 332 332 333 334 335 338 339 341 342 343 343 344 343 342 340 339
319 319 319 319 320 319 318 320 319 319 319 320 321 321 321 319 320 320 319 319 319 318 317 316 314 313 311 314 314 314 316 316 316 316 316 316 317 317 317 316 316 316 317 317 313 313 312 316 317 318 316 319 317 320 317 315 317 320 318 316 318 319 320 320 321 322 326 329 330 332 332 332 332 333 334 336 339 341 341 341 340 340 340 337 335
320 319 318 319 319 319 320 318 319 319 319 319 320 319 319 319 319 320 319 318 318 318 317 316 313 313 313 314 313 315 315 315 315 316 315 315 316 316 316 317 316 315 316 315 315 314 312 314 316 315 318 318 317 317 319 318 320 316 316 315 317 318 320 321 320 322 325 327 328 330 331 332 331 331 332 333 335 338 338 338 338 337 335 333 332
319 320 319 319 319 319 320 320 318 319 319 320 320 320 319 320 320 318 319 318 318 318 317 316 316 315 313 313 313 314 315 314 314 314 314 314 315 316 315 316 315 315 316 316 314 316 313 312 316 316 317 317 319 319 319 320 318 316 316 317 319 319 320 320 321 322 324 325 325 328 330 331 331 330 330 332 331 334 336 335 334 334 333 333 332
319 319 322 320 319 318 319 319 318 318 319 319 320 320 321 320 320 318 318 318 317 318 317 316 320 315 314 314 313 313 312 314 313 313 312 313 314 316 315 316 316 315 316 316 316 316 315 313 314 318 317 317 319 320 320 316 316 318 318 318 316 318 320 322 321 322 322 323 323 325 328 329 331 328 329 330 329 330 331 332 334 334 334 333 331
319 319 319 319 320 318 318 318 318 318 320 319 319 321 322 322 322 320 319 318 317 317 318 315 318 315 315 314 311 312 311 313 314 314 313 313 314 314 313 315 315 315 314 315 316 316 315 315 315 314 318 316 317 318 318 316 315 315 317 318 319 320 319 319 321 319 320 321 322 325 326 327 329 328 327 327 328 328 328 329 331 334 336 335 332
318 318 318 318 323 318 318 317 318 320 320 320 321 320 321 321 322 321 319 318 317 316 317 316 316 314 313 312 312 312 312 313 313 314 315 315 316 317 322 318 316 315 316 317 316 315 315 313 315 315 314 315 315 314 318 316 315 315 314 316 317 321 321 318 319 321 320 321 321 322 324 324 326 327 325 323 326 326 327 326 328 332 335 335 333
318 318 317 318 321 320 318 320 322 324 322 321 321 320 321 322 323 322 322 322 321 319 317 316 315 314 314 313 313 313 313 314 314 314 314 314 315 315 317 316 315 315 315 316 316 315 314 313 313 313 314 315 316 314 315 317 319 318 317 314 314 316 318 319 318 317 320 320 320 321 323 323 325 326 325 325 327 329 328 327 327 329 332 333 332
320 318 318 319 321 319 321 321 323 324 322 322 323 321 321 321 321 323 323 324 323 323 319 315 314 314 314 313 313 313 316 320 323 325 321 321 317 318 319 317 318 315 316 315 316 315 315 313 315 314 313 314 315 314 315 316 316 315 316 314 314 316 317 317 321 320 319 317 318 319 322 322 323 325 326 327 329 329 328 326 326 327 329 330 330
320 320 320 321 322 320 320 321 321 322 322 321 329 331 329 324 321 322 322 323 323 323 323 319 315 314 313 313 316 321 324 324 324 325 327 327 329 324 321 318 321 319 316 315 315 315 314 315 315 315 315 315 315 316 314 315 316 315 315 316 315 316 317 318 322 321 320 318 318 319 321 322 322 324 325 326 326 327 327 327 327 327 327 327 328
321 325 321 320 321 321 321 321 321 321 322 323 331 337 335 332 325 322 322 323 323 322 323 322 320 318 315 315 314 317 324 328 330 328 329 330 329 328 328 333 328 322 318 317 316 315 318 317 317 316 314 315 316 317 315 316 315 316 317 317 315 316 315 314 314 321 323 319 320 318 320 323 322 321 324 326 325 326 325 325 323 325 326 326 327
324 324 321 321 320 321 322 321 321 323 324 331 335 338 339 335 333 325 322 323 323 322 322 321 321 321 318 316 316 315 317 318 320 322 327 331 332 329 329 328 328 331 330 324 323 321 317 317 318 318 316 316 317 317 316 315 318 318 318 317 317 316 315 315 315 315 321 321 319 317 317 322 322 323 323 324 325 325 324 323 323 323 324 325 326
323 321 321 321 321 322 323 322 323 326 326 334 334 337 336 333 335 330 321 322 324 323 322 322 322 322 321 320 317 315 314 323 325 326 328 327 330 331 330 331 331 329 328 330 330 329 325 322 320 320 318 318 317 319 320 321 322 318 319 318 319 318 317 315 316 317 322 322 319 317 316 319 321 321 319 324 324 324 324 323 322 323 324 324 325
321 321 321 321 321 322 322 324 326 328 328 335 332 335 335 335 336 333 320 322 323 323 323 323 323 324 322 321 320 319 319 320 322 322 324 325 324 323 322 320 318 320 325 327 329 330 330 326 323 321 322 320 320 322 324 325 320 320 319 318 320 318 318 318 321 321 322 321 317 316 316 319 319 319 319 322 323 323 325 321 318 321 323 324 324
320 321 322 321 322 325 325 324 325 326 326 334 331 334 334 334 333 337 319 324 324 323 322 323 324 324 324 321 321 320 320 320 320 321 321 321 321 321 321 320 319 319 318 317 317 318 322 324 324 324 323 322 322 322 323 323 322 323 323 321 321 320 320 321 321 322 321 321 318 316 315 319 320 318 320 321 322 322 324 321 320 321 322 323 323
320 321 321 322 324 324 323 323 325 324 324 329 332 333 332 332 332 332 323 324 323 322 322 323 324 324 324 322 321 321 320 320 324 328 330 329 322 320 319 319 319 318 318 322 323 324 325 323 322 322 322 322 324 325 325 323 322 322 322 324 323 322 320 318 318 319 319 320 318 318 316 317 320 316 318 321 321 320 324 326 322 322 321 321 321
318 320 321 322 324 323 323 323 323 324 323 328 328 330 330 330 332 329 326 325 324 322 321 322 322 323 323 324 322 322 321 321 327 326 327 330 328 325 323 321 321 321 320 321 323 324 326 327 327 327 326 325 326 325 324 325 326 325 323 321 320 321 318 316 317 317 317 318 319 318 317 315 319 317 316 319 320 322 325 325 326 321 319 320 320
318 319 320 321 323 324 325 323 323 322 323 327 328 327 327 329 332 327 325 323 321 321 322 323 322 322 322 329 331 327 325 325 327 325 326 330 328 326 324 322 321 320 320 321 320 320 325 325 325 325 325 326 327 326 327 327 326 327 325 320 320 320 318 318 315 317 317 319 322 320 318 316 318 318 317 319 321 324 323 324 325 326 321 318 317
319 318 323 320 322 322 325 325 330 329 324 327 326 325 326 327 331 330 326 322 321 322 322 322 323 322 322 325 328 331 332 332 329 328 329 333 331 327 325 323 320 319 320 321 321 320 322 321 321 322 323 324 326 326 326 327 328 329 329 326 325 321 319 319 319 317 315 317 321 322 317 317 315 317 317 315 313 318 322 323 325 325 324 325 324
Wind_Speed
4 4 4 5 4 4 4 4 4 4 3 4 4 4 4 4 4 4 4 5 4 4 4 4 3 3 3 3 4 5 6 6 5 4 5 3 4 6 9 8 8 7 4 4 4 7 7 5 4 3 2 1 2 3 4 4 4 5 5 6 7 8 9 11 11 11 10 11 12 12 12 16 15 14 13 11 14 15 14 16 16 16 16 16 15
4 3 5 4 4 4 4 4 4 3 4 4 3 3 3 4 4 5 5 4 4 4 3 3 3 3 4 4 4 4 6 6 6 5 5 4 3 4 8 8 8 9 9 7 6 7 8 8 7 6 7 5 4 3 4 2 2 3 4 5 6 8 9 10 10 9 7 8 11 11 11 14 10 11 14 14 16 15 16 15 16 17 16 15 14
4 4 5 4 4 4 4 3 4 4 3 3 3 3 3 2 3 4 4 4 4 3 3 2 3 5 4 5 4 3 5 6 6 6 5 3 3 3 5 9 8 9 9 8 8 10 12 7 8 7 9 8 7 8 7 3 3 5 5 4 5 6 7 8 9 8 8 10 11 10 11 12 9 12 15 17 16 14 15 16 15 17 16 15 15
5 5 5 4 4 4 4 4 4 4 3 3 4 3 3 3 3 3 3 3 3 3 2 3 5 4 4 5 4 4 4 4 6 6 5 4 3 3 3 6 8 9 8 7 7 12 9 7 10 10 9 8 8 11 9 7 8 8 10 9 9 9 7 8 9 8 8 9 11 11 11 11 10 14 16 14 14 18 20 19 17 17 16 18 15
5 5 4 5 4 4 4 4 4 4 4 5 4 4 4 4 4 4 4 4 3 3 3 4 4 4 4 4 3 4 3 4 4 4 5 4 4 3 4 4 5 7 8 7 6 9 12 10 6 8 6 9 8 2 3 6 9 9 10 10 12 11 11 10 10 9 8 8 8 9 10 10 10 14 17 15 18 18 20 20 20 19 19 17 17
5 5 4 4 4 4 4 5 5 5 4 5 5 4 4 4 5 4 4 4 4 4 4 5 4 4 4 4 4 3 3 4 4 4 3 4 3 3 3 3 4 4 5 7 10 10 14 9 11 6 2 8 8 7 4 6 9 11 11 11 10 12 12 12 12 12 12 11 10 10 9 9 10 10 12 15 18 19 20 20 19 19 18 19 19
4 5 5 4 4 4 4 4 4 4 5 4 4 4 4 4 4 4 3 4 3 3 4 4 4 5 4 3 4 3 4 4 4 4 4 3 3 4 5 6 5 5 4 4 7 15 14 3 10 11 13 14 14 12 13 10 9 8 7 6 7 6 7 10 13 13 11 10 11 12 12 10 8 10 12 15 18 18 18 19 17 18 18 20 20
5 4 5 4 4 4 4 4 6 5 5 5 5 6 5 4 4 3 4 4 3 5 3 4 4 5 4 4 4 4 4 4 5 5 4 4 5 5 5 6 7 6 7 4 4 7 10 14 15 13 13 14 15 14 15 15 15 15 14 11 9 9 7 8 9 11 12 11 10 8 8 9 10 11 11 13 16 17 18 18 19 18 18 19 20
5 5 5 4 4 5 5 5 5 5 5 5 5 4 5 4 5 4 3 3 4 4 4 4 4 4 4 5 4 4 5 4 5 4 4 5 5 5 5 5 5 7 4 5 5 5 9 13 13 13 13 14 14 14 14 15 16 15 15 14 13 13 14 14 11 7 1 1 3 7 8 9 8 10 12 13 14 17 17 19 19 18 20 21 21
5 4 5 4 4 4 4 5 5 5 5 5 5 4 4 4 4 5 4 4 4 4 4 4 4 4 5 5 5 5 4 5 4 5 4 4 4 5 4 4 5 5 5 5 5 5 4 9 14 13 14 14 14 14 14 15 16 16 15 15 14 14 13 13 13 12 11 11 10 11 12 12 12 13 11 12 14 15 16 18 19 17 19 20 21
5 5 5 4 5 4 4 4 4 5 5 5 5 5 5 4 5 5 4 5 4 3 2 3 5 5 5 6 5 5 4 4 5 5 4 4 4 4 4 5 5 6 6 5 4 5 5 5 5 5 7 15 14 15 14 14 16 16 16 16 16 14 14 13 13 13 13 13 13 14 13 13 12 15 14 12 14 14 15 17 18 18 20 21 22
5 5 5 4 5 4 4 4 4 5 6 6 5 5 5 6 6 5 6 5 5 5 4 5 6 6 6 6 6 5 6 5 5 5 4 5 5 4 5 4 5 6 5 5 4 5 5 5 5 4 5 9 15 15 15 15 15 15 16 16 16 16 14 14 14 14 14 14 15 15 15 14 13 14 15 14 13 15 16 15 17 20 21 23 23
4 5 5 4 5 5 5 4 4 5 5 4 3 3 3 3 3 4 6 6 6 5 4 2 7 6 5 6 6 6 6 7 7 6 5 4 3 4 4 4 4 5 4 4 4 4 4 4 4 4 4 4 6 12 13 13 14 16 16 16 16 16 15 14 14 14 14 15 16 16 16 15 15 16 17 16 14 14 15 17 18 20 22 23 22
3 4 4 5 5 5 5 5 4 4 4 4 4 4 5 5 3 4 5 5 4 4 3 2 4 6 6 4 5 5 5 7 7 7 5 4 3 4 3 4 4 3 3 3 4 4 4 4 4 4 4 5 5 4 5 6 7 16 16 17 17 16 16 15 15 15 14 15 15 16 16 16 16 17 17 17 16 14 15 16 17 19 22 23 24
4 4 5 5 5 5 5 4 5 4 5 6 5 6 5 5 5 3 3 3 3 4 5 2 4 3 4 6 2 3 5 5 4 7 6 5 4 5 3 4 4 3 2 3 3 4 4 4 4 4 4 5 4 5 4 6 10 16 16 17 17 17 17 16 15 15 14 15 15 16 16 17 17 18 18 18 18 17 16 17 19 20 19 24 25
6 6 6 5 5 5 4 5 5 4 5 5 5 6 5 5 5 4 3 4 4 6 5 4 3 6 5 1 2 3 3 4 3 4 4 4 6 4 3 3 3 3 3 3 3 3 3 3 4 3 4 4 4 4 4 4 9 11 14 16 17 17 17 16 15 15 16 16 16 16 17 18 18 19 19 18 19 18 17 18 20 22 21 24 26
6 6 6 6 5 5 5 4 5 5 5 5 5 4 4 3 3 5 5 4 5 4 6 6 6 2 5 4 3 1 1 2 1 4 4 4 6 4 4 4 3 3 3 3 3 4 4 5 5 5 5 3 4 3 3 4 4 5 8 10 17 17 16 16 15 15 16 16 17 17 18 19 19 19 19 21 22 23 22 24 25 26 24 24 26
5 6 6 6 6 5 5 5 5 5 5 5 4 4 5 5 5 4 5 4 5 6 5 5 5 7 5 2 2 4 6 3 1 1 2 2 2 4 4 5 4 4 5 5 5 5 5 5 5 5 4 3 3 3 3 4 4 6 6 8 16 16 15 15 15 15 16 16 17 17 19 19 20 20 21 23 25 24 29 26 23 26 26 24 25
6 5 6 5 5 5 5 5 5 4 3 6 6 5 4 4 3 5 4 3 2 6 4 1 2 7 5 5 6 5 4 5 2 3 4 3 4 4 5 5 5 6 5 4 5 6 5 5 5 5 5 4 4 4 4 4 6 7 13 14 14 15 15 14 14 14 15 15 16 18 18 20 20 21 21 23 24 25 33 16 3 19 23 24 23
6 5 5 5 5 5 5 5 5 4 4 5 5 4 3 4 4 4 4 5 5 7 5 4 5 3 3 5 6 6 6 6 4 4 4 5 2 2 1 4 5 5 4 5 5 4 6 5 5 5 4 4 4 4 4 4 4 5 5 13 14 14 16 16 18 16 15 15 17 18 18 19 20 20 21 22 23 23 29 11 15 16 18 20 21
5 6 5 5 4 5 5 5 5 4 3 4 4 4 5 5 5 6 7 5 5 3 5 5 5 3 3 5 6 6 5 5 3 3 3 4 1 0 1 1 4 5 4 3 3 3 4 4 3 4 4 4 4 4 4 3 4 4 5 13 14 14 15 16 16 17 17 17 18 18 18 18 19 19 19 21 21 24 25 22 14 18 14 15 16
5 5 6 5 5 5 5 6 5 4 4 5 5 5 5 6 5 5 5 7 4 6 6 4 5 4 4 2 4 3 5 4 4 4 5 3 5 3 1 2 3 2 2 3 4 4 4 4 5 5 5 5 5 5 5 5 5 3 8 13 13 14 15 16 16 17 18 18 19 17 17 17 18 19 19 19 21 20 22 21 15 17 13 9 14
5 4 5 5 5 4 5 5 4 4 5 6 5 4 4 5 5 6 6 6 6 6 6 5 5 6 6 5 4 4 3 3 1 3 2 3 4 2 1 1 2 3 2 3 2 3 3 4 5 5 5 5 4 4 5 5 6 9 15 14 14 15 15 15 15 15 15 17 17 17 16 16 17 18 19 19 19 19 18 21 19 11 7 7 5
5 5 5 5 5 4 5 5 5 5 5 4 4 4 4 4 5 5 5 5 5 6 6 7 7 6 5 4 4 3 4 4 2 2 4 3 4 3 2 0 2 1 2 3 0 2 4 4 4 5 5 4 4 3 4 5 7 14 9 13 15 15 15 16 15 15 15 16 15 16 16 16 16 16 18 18 18 20 19 20 21 13 7 6 6
5 6 5 5 5 5 5 5 5 5 4 4 4 4 5 5 5 5 5 5 5 6 6 5 5 6 4 3 3 4 4 1 2 2 3 3 4 4 1 1 2 1 2 2 3 2 2 4 5 5 5 5 4 5 4 4 5 12 12 8 15 14 15 15 15 15 14 14 14 14 14 15 16 16 16 17 16 18 20 21 17 21 8 6 7
6 6 5 4 4 4 5 5 4 4 4 4 4 4 5 5 5 5 5 4 5 7 6 5 5 4 2 5 4 3 2 0 2 3 3 3 3 4 2 2 2 1 1 3 3 3 3 3 4 5 4 4 4 4 4 5 5 14 16 9 10 14 15 15 15 14 14 14 13 13 14 15 16 16 16 16 16 16 18 19 22 19 22 11 9
6 5 5 5 5 5 4 5 4 5 4 4 4 5 5 5 5 4 3 3 5 5 5 5 5 5 5 5 3 3 2 1 0 2 2 2 3 3 3 4 3 3 3 2 2 4 2 2 2 5 4 4 4 5 5 4 7 16 14 7 6 13 14 15 14 14 14 14 14 14 15 15 15 16 16 16 16 15 16 17 19 19 17 19 19
5 5 5 6 5 5 4 5 4 4 5 5 4 4 4 5 4 4 5 2 5 6 4 5 5 5 5 3 5 4 2 1 1 2 1 2 3 2 3 3 5 1 2 2 3 3 2 3 3 4 4 4 4 3 6 8 5 14 11 6 6 7 12 14 14 14 14 14 14 14 13 14 14 15 15 15 15 14 13 16 17 18 18 17 17
6 4 5 5 5 5 5 4 4 4 5 5 5 5 5 4 4 4 5 4 6 5 3 5 4 3 5 5 5 3 3 2 3 3 2 2 1 1 2 4 4 4 1 2 2 2 4 2 2 4 3 4 4 3 4 5 8 10 5 6 6 6 10 13 14 14 14 15 15 14 13 13 14 14 14 14 14 12 12 15 16 17 17 17 18
6 4 5 5 4 5 5 4 3 3 5 4 4 5 5 4 3 3 1 2 5 4 4 4 4 3 5 5 3 3 2 3 4 3 3 2 2 1 1 1 3 4 3 2 1 1 2 2 0 2 3 4 4 4 3 4 9 9 6 6 6 7 14 13 14 13 14 14 14 14 13 13 13 13 13 13 13 13 11 12 13 15 16 17 17
7 6 5 5 5 4 4 4 3 3 3 4 4 4 4 4 3 3 3 4 5 5 4 4 3 4 5 6 4 3 2 3 4 3 3 3 2 2 2 2 2 2 4 3 2 0 1 2 2 1 2 4 3 4 4 4 7 9 6 6 6 12 13 9 13 13 13 14 14 13 13 13 13 13 13 12 12 12 11 11 11 12 13 14 15
7 6 6 5 4 5 4 4 3 2 3 3 3 2 3 4 2 3 2 4 5 5 4 4 3 4 5 6 4 3 3 2 4 3 3 3 2 2 2 3 2 2 2 3 2 2 1 1 2 4 3 3 4 4 5 5 7 10 5 6 7 11 6 5 10 13 13 13 13 12 13 13 13 13 13 12 11 11 11 10 10 10 11 12 12
7 7 6 5 5 5 5 3 4 3 3 2 0 0 1 1 2 2 2 3 4 3 4 5 4 5 5 5 4 3 3 3 3 2 2 2 2 2 1 2 3 1 2 3 2 1 1 1 2 2 3 3 3 1 5 6 6 7 7 5 6 6 6 5 5 10 13 14 13 12 12 13 13 13 13 13 12 10 10 10 10 9 9 10 10
7 7 6 5 5 5 5 5 5 4 3 4 2 2 2 1 1 2 3 4 4 3 3 4 5 4 4 4 4 4 3 2 3 2 2 2 2 3 3 2 2 3 2 1 1 1 2 2 2 3 2 0 3 2 4 6 7 6 7 7 5 5 5 5 5 6 13 14 14 13 13 12 13 13 13 13 12 11 10 10 10 9 8 7 7
6 7 6 6 5 5 5 4 4 4 2 2 2 3 2 2 3 4 3 4 5 4 2 1 3 4 4 3 2 2 2 3 2 2 1 1 2 3 2 1 2 2 2 2 1 1 2 2 2 2 3 2 1 4 6 4 4 3 5 6 6 5 4 5 4 4 10 14 14 13 13 13 13 13 13 14 13 11 9 8 8 7 6 5 4
7 5 6 6 5 5 4 4 4 4 2 2 1 1 2 2 3 4 4 4 4 4 4 3 2 3 4 3 1 1 1 3 1 1 1 0 1 1 2 1 1 1 1 1 0 1 0 4 3 2 2 3 3 2 3 4 4 5 3 5 4 5 6 5 4 4 7 12 12 12 13 13 12 13 13 12 13 12 11 8 7 6 6 5 5
6 6 4 5 5 5 4 4 3 4 3 4 3 1 0 2 2 2 3 4 4 4 4 3 2 2 2 1 2 1 0 2 1 1 1 1 0 1 2 0 1 0 1 1 1 1 1 3 3 2 1 2 2 3 1 4 5 4 3 3 4 5 6 5 1 3 7 11 10 11 11 12 12 12 12 11 12 12 12 11 9 7 6 5 5
5 5 6 4 5 6 4 3 3 3 1 3 3 3 3 3 3 2 3 4 4 4 4 3 3 3 2 2 2 2 2 3 3 3 2 3 2 3 2 1 1 1 1 0 1 1 1 2 1 3 2 2 3 3 1 2 3 4 6 7 4 4 6 8 7 3 3 4 5 6 6 7 10 9 11 10 11 12 11 12 12 10 8 7 6
7 6 5 5 4 5 4 3 3 4 5 4 3 3 4 3 3 3 3 4 3 2 3 3 3 3 2 2 2 3 4 4 4 4 4 3 2 2 2 2 2 1 1 1 1 2 2 3 2 2 3 2 1 4 2 2 2 1 2 6 7 4 2 3 6 5 3 3 4 5 4 5 7 6 8 10 10 11 11 10 11 11 11 9 8
6 7 7 6 4 3 3 3 3 3 3 3 3 3 2 3 3 3 3 3 3 2 2 2 2 3 3 2 3 4 5 5 5 4 3 4 2 3 3 1 1 2 3 3 3 3 3 2 2 3 1 3 3 3 3 3 2 1 1 1 4 6 7 4 2 6 4 4 5 6 6 6 6 4 3 4 7 10 10 8 9 11 11 11 9
5 5 6 6 5 4 4 4 3 2 3 3 3 3 3 3 2 3 2 1 1 1 0 1 2 3 3 3 3 4 5 7 9 7 5 4 2 4 4 2 2 3 4 3 3 3 3 2 4 2 3 3 3 3 4 2 2 3 2 1 3 4 4 6 5 2 2 4 5 5 4 4 5 5 5 4 5 8 7 7 6 9 10 10 9
5 5 6 5 5 5 5 5 3 3 3 2 3 8 6 5 4 3 2 1 1 0 0 1 2 3 4 4 4 7 9 10 10 10 10 9 10 8 6 3 4 4 3 4 4 3 2 4 4 3 4 5 4 3 3 3 2 2 2 2 4 5 5 5 4 1 1 1 4 6 6 2 3 4 4 4 4 4 4 5 5 7 9 9 8
6 4 5 5 5 5 6 6 5 4 3 3 6 5 9 10 6 4 4 3 1 2 2 2 3 4 5 5 5 6 7 8 7 11 12 11 10 8 7 10 9 5 4 5 5 3 3 3 3 3 3 6 6 3 3 4 2 3 3 2 3 3 3 4 5 4 1 1 3 3 6 3 2 4 4 4 4 4 4 4 8 10 10 10 8
4 4 5 5 5 5 4 3 4 3 4 5 5 5 6 7 7 5 4 4 3 3 3 3 2 3 4 4 4 4 4 6 6 6 9 13 14 12 10 9 7 9 10 7 5 3 3 4 5 5 4 5 6 3 3 2 4 3 3 2 2 3 4 4 3 5 1 1 3 3 6 3 1 3 4 4 4 4 5 8 10 10 10 10 9
5 5 5 5 5 4 4 5 4 4 4 6 6 6 4 3 5 6 3 4 3 2 2 3 3 3 2 3 4 4 4 9 7 6 6 7 10 13 13 11 10 10 9 9 10 8 5 5 6 6 5 4 5 4 3 3 2 3 2 3 3 3 3 4 5 5 4 1 2 3 3 4 2 3 4 4 4 4 5 6 8 7 9 9 9
5 5 5 5 5 5 4 5 5 5 5 7 7 6 4 3 4 5 3 3 2 2 2 2 2 2 3 3 3 4 4 5 5 6 6 7 7 7 7 6 6 8 10 12 12 14 9 6 6 7 7 5 6 6 5 3 3 5 4 5 3 4 5 6 6 7 7 2 5 2 3 3 1 2 4 4 3 4 4 7 10 9 9 9 8
6 6 5 5 4 4 4 4 4 4 4 4 5 4 4 4 3 4 2 1 1 2 2 2 3 3 3 3 3 5 5 5 5 7 7 8 7 6 6 7 7 7 6 6 6 5 5 4 6 8 8 6 8 8 7 4 6 6 5 5 5 5 5 6 7 7 7 4 6 3 3 2 1 2 3 4 4 5 4 6 8 9 9 10 9
4 5 3 3 4 4 4 4 4 4 4 3 3 4 4 4 5 2 2 2 2 2 2 3 3 4 3 3 4 4 5 6 8 11 10 7 6 7 8 8 7 7 7 8 10 9 8 6 6 7 7 7 8 7 7 5 5 4 4 3 3 4 4 5 6 4 4 1 5 5 2 3 1 2 3 3 3 5 5 4 6 7 8 9 9
6 6 6 5 4 4 4 3 4 4 4 4 5 6 6 6 3 2 2 1 2 3 4 3 3 3 4 4 4 4 5 6 9 9 10 10 6 6 7 7 7 6 8 7 8 12 13 13 13 13 13 13 13 14 13 13 9 5 3 4 6 3 4 6 6 4 5 1 4 5 2 3 2 3 4 3 3 5 4 4 4 7 8 9 10
5 6 4 4 3 4 4 5 4 5 5 5 6 6 7 6 6 4 3 3 3 3 4 4 3 4 5 8 6 5 5 7 8 9 9 7 5 5 5 6 7 7 8 7 4 4 8 10 11 12 13 12 13 14 15 14 13 9 6 8 6 1 6 6 7 5 5 5 5 6 3 3 2 2 3 2 3 3 3 4 4 5 7 7 9
5 5 3 4 4 3 4 5 6 6 5 4 5 6 7 7 5 4 3 2 3 5 4 5 4 3 4 4 7 6 6 7 9 8 8 6 4 5 5 4 6 8 9 7 6 7 6 5 5 5 6 9 8 7 8 13 13 12 8 8 6 5 8 7 7 5 7 5 2 7 4 2 2 2 1 3 3 3 3 3 4 5 5 5 5
Wind_Direction
81 80 80 69 53 45 43 44 40 28 22 40 36 16 7 356 354 1 358 351 347 335 340 345 12 22 21 21 32 34 42 52 57 71 81 68 79 86 90 84 84 100 95 122 80 96 113 129 137 115 172 255 287 258 259 258 261 267 281 289 286 285 286 284 282 282 275 264 260 256 259 272 270 268 263 262 261 255 241 226 221 226 227 224 223
101 81 89 75 58 52 53 45 44 22 27 37 7 18 355 347 357 6 357 354 344 334 349 354 20 32 34 36 28 34 55 55 64 71 78 76 67 78 87 87 86 82 80 73 83 83 96 99 82 57 61 61 43 348 285 283 330 351 339 309 287 283 281 283 276 272 271 261 255 254 244 246 268 280 271 249 241 243 255 253 243 228 226 218 220
96 89 81 77 64 58 51 38 47 23 21 20 356 359 334 353 0 349 352 346 334 325 339 18 34 37 32 40 26 29 51 65 72 73 77 71 68 42 72 83 79 76 73 66 78 83 75 44 62 68 64 65 56 47 52 339 42 43 28 352 327 309 306 297 292 281 265 263 269 262 241 236 248 261 264 260 263 258 241 247 246 245 235 229 225
90 86 85 80 72 63 44 44 27 7 15 3 352 350 333 326 329 349 325 355 334 336 346 47 48 37 32 38 22 34 39 46 68 74 78 72 63 52 34 44 66 72 71 68 65 78 66 74 68 59 59 58 48 35 29 31 49 36 20 12 8 349 333 330 320 313 301 292 282 273 267 253 230 241 252 259 255 255 255 243 241 242 235 231 224
81 79 82 82 78 64 42 29 6 0 360 356 343 347 356 358 355 356 359 16 356 10 23 50 53 34 40 34 34 38 35 53 51 54 63 64 55 44 40 40 50 62 58 57 52 100 118 82 61 75 74 57 37 98 310 25 43 39 33 12 22 17 9 0 357 344 328 315 300 289 286 281 260 213 232 247 244 242 242 244 238 237 231 225 223
90 83 78 81 66 56 43 22 5 0 0 2 0 345 360 10 352 354 10 17 11 15 43 54 39 48 44 32 38 36 38 55 49 50 46 49 41 50 57 56 50 50 55 66 78 74 64 69 86 103 152 132 130 95 103 67 52 55 41 36 24 17 11 10 8 3 2 1 349 332 309 290 279 266 242 233 242 242 237 238 238 238 234 228 221
72 90 74 70 66 47 31 6 347 9 2 358 356 345 14 9 353 356 359 24 20 31 48 66 57 46 40 32 33 31 36 44 43 45 44 44 40 44 50 55 53 53 41 33 59 62 85 120 101 79 65 58 58 70 64 68 78 83 61 33 22 19 5 24 22 20 10 353 345 340 326 312 296 283 264 246 244 241 240 240 236 236 237 231 224
71 78 80 60 68 54 22 11 9 7 11 5 10 8 353 7 4 2 22 25 32 40 28 64 60 60 48 41 27 36 37 31 35 37 32 43 44 42 48 52 56 55 53 32 30 92 77 71 71 70 64 55 53 55 51 48 48 49 55 60 57 44 45 54 50 33 3 352 3 342 334 311 296 287 276 265 250 241 240 241 240 235 231 230 226
74 74 85 70 52 42 18 17 10 25 23 13 15 2 15 7 6 16 50 49 38 52 46 45 62 52 50 41 34 38 34 32 35 28 24 39 40 47 50 48 55 57 35 32 36 13 48 50 52 62 56 48 48 45 46 44 42 40 39 39 38 36 30 27 43 76 92 16 346 352 353 344 324 291 278 268 264 249 241 238 240 236 231 229 225
84 82 88 81 68 48 23 20 21 33 31 22 11 2 21 18 25 19 27 43 41 41 53 45 67 63 45 42 38 43 37 38 33 34 31 35 30 40 44 49 53 44 46 42 34 36 30 33 36 29 40 48 42 39 37 35 37 34 31 27 26 27 26 26 25 24 17 11 8 3 359 2 343 318 299 280 267 257 246 242 240 239 234 226 224
89 84 78 66 55 44 46 25 40 47 43 29 14 5 12 19 49 18 18 48 57 23 35 66 74 70 60 47 52 45 36 44 42 35 26 18 41 37 32 40 43 39 39 40 38 39 33 31 28 23 16 33 36 34 32 31 33 29 27 23 19 16 17 17 17 16 10 8 5 0 358 357 348 336 330 300 279 264 250 245 239 238 237 234 229
99 99 91 90 83 74 78 56 55 62 49 36 11 5 1 7 27 36 21 29 44 23 27 83 72 62 66 59 47 54 46 41 48 38 25 23 20 29 37 34 46 45 42 45 47 42 36 33 34 24 24 22 28 30 29 28 31 27 26 22 19 14 9 9 9 9 6 6 2 358 354 352 346 340 333 326 300 269 256 243 234 233 233 231 227
92 88 92 105 101 104 89 67 61 71 70 52 15 358 11 14 15 35 42 39 23 2 20 341 104 64 35 56 59 47 49 42 42 31 23 14 21 34 33 47 33 37 30 41 40 37 35 30 28 30 27 21 15 21 23 18 24 24 21 18 16 12 7 5 4 6 3 3 1 356 352 349 345 342 337 330 318 298 273 260 246 233 228 227 224
95 89 79 88 91 80 71 59 56 65 79 64 42 38 26 27 13 50 39 63 40 358 334 55 62 130 122 77 58 41 51 46 40 25 18 18 25 47 40 51 43 36 34 45 37 34 34 27 24 25 20 15 13 6 7 10 2 17 12 10 12 11 6 4 2 2 2 3 0 354 350 348 344 341 335 329 321 306 286 272 261 246 233 225 217
74 84 84 74 79 78 68 69 60 57 60 44 36 39 31 29 30 81 37 35 65 17 18 355 134 94 89 103 72 42 358 24 23 29 12 12 25 41 37 49 47 46 43 51 37 30 27 22 20 14 18 12 8 0 358 1 9 9 3 4 10 10 2 0 358 358 1 3 1 354 350 348 346 344 338 333 325 311 293 278 265 257 241 224 216
85 92 88 79 79 81 75 66 61 63 79 64 42 40 32 28 27 28 108 61 24 28 24 33 92 136 123 96 152 119 71 15 7 16 357 23 28 32 33 36 43 52 53 45 38 38 25 21 13 358 30 8 0 5 353 352 1 358 351 355 6 6 359 357 354 354 360 1 1 357 352 351 349 347 341 334 325 307 287 270 264 248 236 222 211
85 93 100 95 85 84 76 62 63 52 66 61 46 35 37 54 45 58 53 119 73 61 37 40 50 11 135 118 85 47 212 169 73 31 358 11 12 19 38 21 33 44 40 38 30 34 22 21 9 2 39 7 352 0 354 350 346 341 344 339 4 2 359 357 353 353 360 2 2 359 356 353 352 348 345 338 333 322 301 280 257 240 217 215 206
91 97 104 106 97 94 85 72 59 50 54 66 56 41 31 36 29 62 70 42 111 77 75 46 56 50 51 107 164 169 166 208 81 69 335 66 349 31 29 11 13 28 30 33 31 22 19 15 7 8 20 7 344 347 349 339 342 349 333 352 4 4 359 357 354 354 5 7 5 1 360 357 355 351 350 347 343 335 323 299 258 225 197 198 194
95 104 105 107 107 97 92 83 71 60 57 53 39 25 17 31 36 62 55 66 78 81 55 26 8 47 28 55 64 52 108 132 165 106 85 347 2 7 21 16 30 35 37 41 44 37 18 14 9 8 13 6 357 345 343 337 339 339 340 3 6 7 358 356 359 2 7 9 7 3 0 359 356 355 354 357 353 350 348 330 218 178 174 180 183
108 102 112 116 112 98 96 88 74 54 62 58 52 21 35 33 49 70 84 69 80 97 82 36 89 41 21 45 56 59 55 62 91 152 144 136 85 355 95 15 45 31 33 40 40 44 30 13 7 6 1 9 1 358 348 336 325 317 309 10 8 9 2 2 7 9 5 8 5 3 359 359 357 359 358 4 6 7 1 4 117 146 156 162 168
98 113 116 117 104 105 96 88 78 63 77 73 54 44 47 59 56 58 64 57 54 88 86 52 63 83 57 55 52 54 51 52 64 69 126 121 32 347 116 329 53 34 25 35 30 35 41 13 14 13 8 357 357 348 347 338 320 322 311 14 9 6 7 1 358 7 8 6 3 2 360 359 358 1 2 8 12 18 17 15 75 104 116 149 171
104 109 108 101 107 106 94 90 86 69 52 57 73 55 48 59 61 78 77 80 59 78 85 83 73 62 60 141 79 45 41 32 24 63 56 52 151 158 6 71 76 341 344 30 20 29 19 17 17 12 11 357 356 350 343 342 336 305 2 12 8 5 2 0 358 359 3 4 1 359 1 360 2 1 8 12 21 23 30 13 42 65 94 160 180
113 91 101 109 95 90 100 91 76 73 64 51 58 74 76 84 85 82 74 87 84 85 80 70 81 67 53 62 82 94 137 124 149 39 110 121 84 82 61 2 95 103 7 333 22 25 25 17 18 8 12 4 356 357 348 342 339 21 14 12 14 10 4 358 354 354 359 0 357 357 1 3 5 4 12 16 28 27 34 33 29 61 89 60 123
114 110 100 99 99 84 86 88 80 79 75 77 78 98 99 84 68 70 77 79 91 85 83 76 70 69 58 56 70 79 68 97 155 131 96 123 119 116 109 80 76 26 318 316 293 26 26 29 18 12 14 9 6 359 358 357 349 12 23 6 9 7 6 3 357 351 353 358 360 358 2 6 8 8 12 19 25 34 37 38 28 43 46 132 190
130 117 115 119 112 105 101 98 90 86 93 84 85 92 93 83 81 77 85 80 79 89 88 86 88 86 88 65 74 57 54 82 86 58 42 88 112 108 35 322 136 105 4 2 359 322 2 37 15 18 19 12 7 1 356 360 342 7 16 1 358 359 360 360 359 357 355 360 0 4 7 11 14 11 12 19 23 35 40 48 35 32 49 106 91
141 135 142 119 101 116 113 102 98 102 101 100 94 88 83 83 80 75 65 71 80 78 85 88 78 84 115 87 61 63 57 197 142 143 142 107 80 107 120 32 31 358 347 5 346 15 342 14 14 20 20 17 1 348 354 352 344 4 7 4 349 350 353 358 358 360 1 5 4 11 16 17 14 13 13 20 21 34 44 48 45 38 22 60 106
136 143 122 117 122 119 115 106 105 100 90 79 63 63 72 78 72 82 69 61 74 77 70 81 80 83 74 79 95 67 30 6 62 105 129 112 138 160 133 109 44 15 18 339 321 53 312 282 341 23 15 6 360 349 351 340 357 7 4 355 342 344 348 355 355 358 2 5 7 11 17 18 13 14 12 16 21 27 40 48 54 50 45 26 41
127 124 126 129 130 120 102 106 107 100 84 84 85 84 86 89 78 80 74 47 80 72 75 78 73 68 75 85 76 54 27 40 79 94 106 141 135 148 123 124 136 107 343 359 355 10 339 19 331 27 14 2 342 345 354 358 332 7 356 346 341 333 339 353 352 357 1 3 3 8 15 18 12 14 14 13 21 29 21 48 50 48 46 44 42
132 121 127 124 126 126 116 105 97 108 90 80 89 91 81 74 76 74 72 62 73 70 51 68 61 73 81 60 73 63 32 39 59 52 59 77 69 148 170 157 159 133 168 7 352 336 350 10 28 333 6 351 344 336 341 339 350 7 344 342 334 323 339 353 353 355 360 0 360 2 8 17 14 14 16 16 20 32 30 43 47 46 45 43 41
131 127 128 130 124 113 114 105 103 87 93 93 93 90 86 77 78 63 21 82 90 69 53 63 49 44 73 66 46 61 28 52 53 48 53 69 84 42 15 66 132 131 167 142 239 236 300 328 227 302 327 345 344 334 331 322 341 3 349 336 338 323 348 352 352 355 357 357 356 360 5 12 13 13 16 20 24 34 33 38 45 44 42 40 40
130 130 131 130 121 106 120 117 111 117 84 72 68 67 82 97 82 75 35 55 73 79 57 63 53 54 67 69 42 57 30 64 64 53 54 55 66 71 60 80 22 115 144 127 140 270 197 330 296 267 293 310 335 322 317 321 341 356 347 340 330 344 352 347 351 354 353 354 359 1 4 9 11 12 12 21 25 34 44 37 34 43 42 40 38
132 136 139 145 143 128 124 134 117 76 69 63 70 95 116 108 120 95 37 79 57 49 66 61 70 62 69 67 42 42 23 47 71 56 52 51 54 61 63 76 72 65 91 97 101 70 214 266 297 297 307 303 307 328 331 342 340 349 351 340 338 348 345 339 345 347 346 356 1 3 5 8 10 10 12 15 23 32 39 45 40 38 36 36 35
139 142 146 157 158 148 142 105 86 92 115 118 341 85 3 90 102 154 107 102 88 35 58 69 57 62 63 73 51 28 10 43 61 65 66 56 61 71 76 91 78 43 74 94 106 329 306 227 285 309 323 330 306 337 343 347 340 337 344 345 346 345 345 338 336 336 344 358 0 6 6 8 11 14 16 17 19 30 37 38 36 32 31 28 28
149 151 156 162 161 148 121 111 107 101 130 181 119 198 271 38 166 214 139 114 111 80 61 67 64 72 70 75 60 46 30 53 44 46 25 33 35 51 28 32 43 45 6 87 80 108 324 309 328 320 304 9 307 262 358 335 332 334 337 340 342 353 340 342 339 342 344 360 359 2 7 7 11 14 18 20 21 25 34 37 31 29 25 22 17
154 157 160 156 148 126 118 119 116 113 155 210 133 144 145 127 153 199 175 149 146 141 131 55 71 85 83 73 50 30 41 64 45 12 12 45 45 70 54 21 49 40 47 71 129 64 2 323 247 297 336 318 309 324 331 320 315 320 321 342 336 329 345 342 339 336 351 1 359 2 5 6 14 12 13 16 17 26 37 37 33 24 20 17 8
158 161 145 143 132 131 130 124 118 109 142 274 224 162 128 125 124 191 180 150 155 153 158 164 128 91 105 102 86 33 54 96 44 57 354 352 52 66 81 40 63 56 15 49 103 132 57 360 328 326 319 323 302 295 299 306 327 329 330 315 323 340 338 342 343 332 348 357 1 5 5 8 13 12 12 12 16 21 32 35 35 28 18 9 9
164 133 126 131 128 133 147 160 136 109 187 219 229 309 32 99 110 161 159 150 152 165 164 170 164 129 135 151 171 138 64 134 231 212 163 178 254 133 111 79 123 305 26 25 76 86 88 360 303 270 282 266 259 288 348 354 328 324 315 342 333 321 330 331 339 338 340 352 358 1 4 5 9 9 7 9 19 18 22 23 23 23 16 9 8
160 142 141 152 153 150 165 154 120 117 213 235 202 178 131 81 73 111 145 143 153 158 169 174 175 162 150 138 186 174 204 203 213 247 237 190 192 168 162 196 203 129 152 142 51 56 355 285 270 301 327 337 324 298 299 358 325 325 337 337 338 7 355 346 337 345 343 344 347 350 355 0 1 3 3 360 14 18 16 13 13 10 9 2 356
159 145 140 154 168 153 167 144 144 171 184 141 139 158 139 111 100 109 123 123 125 151 193 186 172 177 164 152 182 193 213 231 230 231 236 244 236 273 228 201 159 193 301 338 350 340 347 328 293 235 288 268 246 301 298 327 249 235 327 333 338 329 352 349 320 317 328 326 321 337 357 354 354 0 357 353 0 13 13 10 8 7 10 4 350
160 153 153 162 161 145 132 134 150 187 118 102 107 138 127 125 130 113 119 123 134 150 156 179 180 200 196 181 190 206 218 228 229 242 220 245 219 267 273 267 258 278 283 298 310 299 311 326 285 304 289 295 293 256 277 309 342 351 92 359 309 320 324 326 270 297 312 330 337 336 341 350 355 353 3 342 349 0 359 3 360 1 3 3 356
155 145 132 135 138 134 133 150 171 138 131 143 134 140 168 135 120 138 88 62 48 70 83 158 214 221 229 222 209 218 230 234 238 243 229 226 183 261 265 194 226 229 262 282 260 285 288 296 295 268 282 282 267 298 320 310 282 299 308 327 282 288 303 309 310 259 259 320 323 326 331 348 334 343 341 347 346 350 346 343 345 353 352 350 347
127 126 128 131 144 152 158 186 171 160 192 194 176 178 185 150 155 137 107 90 133 25 1 306 252 239 234 229 241 243 243 241 245 251 254 252 248 226 240 209 217 212 235 255 258 253 270 279 274 292 302 287 287 268 260 249 266 269 273 260 303 316 318 310 293 206 274 301 332 331 318 348 335 320 332 328 323 340 323 328 335 330 331 333 334
132 135 132 145 159 179 184 177 179 196 205 212 207 203 159 152 144 144 150 167 200 197 202 225 246 241 237 226 237 263 265 264 263 263 265 268 289 301 259 220 206 195 208 226 243 213 250 257 270 269 255 279 280 253 239 275 261 247 276 281 282 304 319 337 317 310 142 324 345 320 302 326 346 321 318 309 312 316 302 310 316 320 323 326 326
134 130 151 182 184 190 174 160 199 206 203 211 194 184 151 167 158 150 152 160 178 187 201 208 231 233 240 232 232 228 247 249 255 276 281 284 287 288 292 300 288 228 209 204 231 230 210 246 266 254 254 259 276 274 262 227 251 238 233 257 268 292 305 299 279 281 254 356 331 312 295 301 312 300 309 301 305 297 303 304 312 317 320 321 321
138 148 167 156 175 173 165 172 188 205 201 187 171 178 172 159 163 144 152 145 169 200 208 220 216 220 222 233 240 235 243 256 261 259 257 278 286 288 294 302 299 297 293 268 250 237 204 235 243 263 232 245 265 262 220 236 195 266 273 279 275 262 257 273 261 271 287 168 312 283 279 302 334 312 301 295 287 292 302 301 306 305 309 312 312
135 131 127 134 137 152 170 178 177 183 181 173 174 186 180 165 155 145 151 152 177 205 223 251 255 237 227 215 221 242 239 245 254 255 255 259 262 278 285 273 269 282 278 272 272 270 261 214 217 242 252 180 239 255 249 225 240 261 265 272 268 281 274 268 280 273 276 191 243 245 282 271 218 278 290 285 286 289 284 294 299 303 304 304 303
148 149 158 146 156 155 177 180 158 182 205 202 177 194 187 195 205 139 126 134 176 254 275 262 266 271 252 233 229 244 249 244 234 237 244 252 257 265 268 271 270 264 262 264 255 244 251 234 232 232 249 222 233 251 259 243 240 245 241 257 272 279 284 288 278 256 268 226 200 189 247 288 174 271 279 285 303 296 290 296 295 300 304 303 301
141 134 112 131 155 179 177 167 170 197 237 255 240 225 217 223 225 151 132 160 228 275 282 262 268 267 253 235 222 244 254 260 266 265 262 251 244 259 265 272 275 270 262 255 258 257 251 240 229 238 245 251 247 250 254 245 239 250 259 259 270 259 280 289 281 296 276 195 189 191 231 257 166 258 264 278 278 280 282 273 288 288 293 297 300
158 151 165 173 190 173 176 172 193 203 236 240 227 225 224 226 238 175 176 196 251 277 274 262 251 253 249 236 227 240 253 256 266 267 270 278 266 257 262 273 276 282 277 272 248 251 254 255 256 254 255 260 262 262 264 260 250 234 227 269 265 256 265 278 280 278 275 156 215 219 230 271 204 206 255 255 262 275 280 293 303 306 303 305 304
159 171 167 178 188 190 180 195 197 204 228 238 224 220 225 227 220 215 212 224 277 275 283 264 243 250 250 260 246 225 244 256 270 276 273 277 252 252 256 266 280 281 281 277 284 261 251 256 259 260 262 264 262 265 262 258 251 234 223 250 260 222 261 256 270 272 286 282 245 176 204 245 305 213 273 285 290 262 280 288 288 296 299 297 292
156 150 160 174 197 205 206 200 214 212 236 240 225 221 228 231 227 216 195 182 261 271 268 284 273 248 264 267 267 256 243 250 263 274 282 280 247 248 253 265 271 273 268 284 288 290 292 286 265 256 259 256 261 262 263 265 263 257 234 238 250 233 257 259 258 283 291 263 201 163 209 245 256 286 289 321 300 278 280 286 297 294 293 291 296